Dewpoint
10 9 8 8 6 4 4 5 5 5 5 4 3 2 2 2 1 1 0 1 2 2 2 2 3 4 4 4 4 4 4 4 3 2 2 2 2 1 -5 -13 -10 -6 -5 -4 -4 -4 -5 -8 -13 -7 0 3
10 9 9 8 5 4 4 4 5 6 5 3 4 2 1 2 1 1 0 0 -0 -1 -3 -3 -0 2 3 4 4 4 4 4 3 1 0 -2 -5 -8 -12 -9 -7 -7 -6 -5 -5 -5 -6 -10 -12 -6 -2 2
10 10 9 8 6 6 4 4 6 6 4 4 4 1 1 1 1 1 0 1 -0 -0 -2 -6 -4 0 2 3 3 3 3 3 1 -1 -3 -7 -14 -17 -13 -9 -7 -7 -7 -7 -6 -6 -7 -12 -11 -6 -4 1
10 9 9 8 8 7 5 5 6 4 4 4 4 2 2 1 1 1 0 0 0 -0 -1 -4 -5 -2 1 2 2 2 1 1 -0 -3 -7 -13 -18 -17 -16 -14 -12 -10 -10 -10 -9 -9 -11 -15 -11 -8 -6 1
10 9 9 9 8 8 7 7 5 3 4 5 4 3 2 2 1 1 1 0 0 -0 -2 -4 -5 -3 -1 1 1 -0 -2 -2 -2 -2 -9 -17 -17 -18 -18 -17 -16 -15 -14 -13 -13 -13 -14 -17 -12 -11 -8 1
10 10 9 9 9 8 7 7 6 5 5 5 4 4 3 2 2 1 1 1 0 0 -2 -3 -4 -5 -5 -3 -2 -4 -5 -5 -4 -5 -12 -17 -17 -19 -17 -18 -18 -17 -17 -16 -16 -16 -16 -18 -13 -14 -10 -0
10 10 9 9 9 8 7 7 7 6 6 5 4 4 3 3 3 2 2 1 -0 -1 -1 -2 -3 -5 -7 -7 -6 -7 -8 -7 -7 -9 -13 -15 -18 -17 -16 -18 -18 -17 -18 -17 -17 -17 -16 -18 -15 -15 -10 -1
10 9 9 9 8 8 8 7 7 6 6 5 5 4 3 3 3 3 2 1 -0 -1 -1 -2 -3 -5 -6 -6 -7 -8 -10 -11 -11 -12 -12 -14 -16 -16 -16 -16 -16 -17 -16 -17 -17 -16 -16 -17 -16 -16 -11 -2
9 9 9 8 8 8 8 7 7 6 6 5 5 4 3 3 3 3 2 1 0 -1 -2 -3 -3 -4 -5 -4 -6 -7 -10 -12 -14 -14 -13 -13 -14 -14 -15 -15 -15 -15 -15 -15 -15 -15 -15 -15 -15 -15 -13 -6
9 9 8 8 8 8 8 7 7 6 6 5 4 4 3 3 3 3 2 2 1 1 -0 -2 -3 -4 -5 -5 -6 -9 -11 -13 -15 -15 -14 -14 -13 -14 -14 -14 -14 -14 -14 -15 -14 -15 -14 -14 -14 -14 -14 -11
9 9 8 8 8 8 8 7 7 6 6 5 4 3 3 3 3 3 3 3 3 3 2 1 -1 -3 -5 -7 -9 -11 -13 -15 -16 -15 -15 -14 -14 -14 -15 -16 -17 -17 -18 -18 -18 -18 -18 -18 -16 -16 -15 -13
9 9 8 8 8 8 7 7 7 6 6 5 4 3 3 3 3 3 3 3 3 3 3 3 1 -1 -5 -8 -10 -12 -14 -15 -16 -15 -15 -15 -16 -18 -19 -22 -23 -24 -26 -26 -29 -26 -28 -26 -23 -24 -19 -17
8 9 8 8 8 8 7 6 6 6 6 5 4 4 3 3 3 3 3 3 3 3 3 3 2 -1 -4 -8 -11 -13 -15 -15 -15 -15 -16 -16 -19 -23 -26 -29 -29 -32 -32 -33 -34 -32 -34 -32 -32 -32 -28 -28
8 8 8 7 7 7 6 5 5 5 6 5 5 4 3 3 3 3 3 4 4 3 3 3 2 -0 -4 -8 -11 -12 -14 -16 -15 -15 -16 -17 -21 -28 -30 -32 -32 -34 -33 -34 -34 -33 -35 -31 -36 -32 -32 -37
8 8 8 7 7 7 6 5 4 4 5 6 5 5 4 3 3 3 4 4 4 3 3 3 2 1 -2 -7 -10 -11 -13 -16 -15 -15 -16 -17 -21 -27 -30 -32 -32 -34 -32 -34 -33 -32 -35 -32 -35 -33 -33 -35
8 8 8 7 7 6 6 6 5 5 5 6 6 5 4 3 3 3 4 4 4 3 3 3 2 2 -0 -4 -8 -10 -13 -16 -16 -14 -15 -16 -20 -26 -29 -32 -31 -33 -32 -32 -33 -33 -34 -32 -34 -33 -33 -35
8 8 8 7 7 7 7 7 6 6 6 6 6 5 5 4 4 4 4 4 4 3 3 3 3 2 1 -1 -5 -10 -12 -15 -16 -15 -15 -16 -20 -25 -28 -31 -30 -32 -31 -31 -33 -31 -33 -33 -34 -33 -33 -35
8 8 8 7 7 7 7 7 7 6 6 6 6 6 5 5 4 4 4 4 4 3 3 3 3 2 2 0 -3 -8 -11 -14 -17 -17 -16 -16 -19 -23 -27 -30 -30 -31 -30 -30 -31 -30 -32 -31 -32 -32 -32 -34
7 8 8 7 7 7 7 7 7 7 6 6 6 5 5 5 4 4 4 4 4 3 3 3 3 3 2 1 -1 -5 -9 -13 -16 -17 -17 -16 -18 -23 -26 -28 -28 -29 -29 -30 -30 -29 -30 -30 -31 -31 -30 -32
6 7 7 7 7 7 7 7 7 6 6 7 6 5 5 5 3 3 4 4 4 4 3 3 3 3 2 1 0 -2 -6 -11 -15 -17 -19 -18 -18 -22 -25 -27 -27 -27 -29 -29 -29 -29 -29 -29 -30 -30 -29 -31
4 5 7 7 7 7 6 6 6 6 6 6 6 5 4 4 3 3 4 4 4 4 3 3 3 3 3 1 1 -1 -4 -8 -13 -16 -18 -20 -20 -21 -23 -25 -27 -27 -27 -28 -29 -28 -28 -29 -28 -29 -29 -29
5 5 6 7 7 7 6 6 6 6 6 6 6 6 5 4 4 4 4 4 4 4 3 3 3 3 3 2 1 -0 -2 -6 -10 -13 -16 -19 -20 -21 -22 -24 -26 -26 -27 -27 -29 -28 -28 -28 -27 -28 -28 -28
6 6 6 6 6 6 6 6 6 6 6 6 6 6 6 5 5 5 4 4 4 4 4 3 3 3 3 2 1 1 -1 -4 -7 -10 -13 -17 -19 -20 -21 -23 -25 -25 -25 -26 -28 -29 -28 -28 -27 -27 -27 -27
6 6 6 6 6 6 5 4 5 6 5 5 6 5 5 5 4 5 4 4 4 4 4 4 3 3 3 2 1 1 -0 -1 -4 -6 -9 -13 -16 -19 -21 -22 -23 -23 -23 -25 -26 -27 -27 -27 -26 -26 -27 -27
5 6 6 6 5 5 4 2 3 5 6 5 5 5 5 4 4 4 4 4 4 3 4 4 3 3 3 3 2 1 1 0 -1 -3 -6 -9 -12 -16 -19 -21 -22 -21 -22 -23 -24 -25 -26 -26 -26 -26 -26 -26
4 4 5 5 5 5 4 3 1 3 5 5 5 5 5 5 5 4 4 4 4 3 4 3 3 3 3 3 2 1 1 0 -1 -2 -4 -6 -9 -12 -15 -17 -20 -21 -21 -22 -23 -25 -25 -25 -25 -25 -25 -25
3 3 4 4 5 5 4 4 3 2 4 5 5 5 5 5 4 4 4 4 4 4 3 3 2 2 3 3 3 2 1 -0 -1 -2 -3 -4 -6 -8 -11 -14 -16 -17 -19 -21 -22 -22 -22 -24 -25 -25 -25 -25
2 3 3 3 4 4 4 5 4 4 4 5 4 4 5 5 4 4 4 4 4 4 3 3 3 2 2 3 3 2 1 -0 -1 -2 -2 -3 -5 -6 -8 -10 -12 -14 -16 -17 -18 -20 -21 -22 -23 -23 -24 -25
1 2 2 2 3 3 3 3 4 4 4 4 3 4 4 3 3 4 4 4 4 4 3 3 3 3 2 2 3 2 1 0 -0 -0 -1 -2 -4 -4 -4 -5 -8 -10 -12 -14 -15 -17 -20 -21 -22 -22 -23 -25
-0 0 1 1 2 2 2 2 2 2 3 3 3 4 3 3 3 3 3 4 4 3 3 3 3 3 3 3 3 2 1 0 -0 0 -0 -1 -2 -3 -3 -4 -5 -6 -8 -10 -12 -13 -16 -18 -21 -22 -23 -23
-3 -2 -1 -0 0 0 1 1 1 1 1 2 2 3 3 3 4 4 3 3 4 3 3 3 3 3 2 2 3 2 1 -0 -1 0 0 -0 -1 -2 -3 -3 -4 -4 -5 -7 -8 -9 -11 -13 -17 -20 -22 -23
Wind_Speed
24 22 21 23 20 14 12 15 14 12 11 8 6 5 6 5 5 3 2 5 8 9 9 9 10 10 11 11 11 10 11 9 9 10 9 9 11 11 15 20 19 19 18 17 16 15 14 11 10 14 16 16
25 24 24 24 21 17 15 16 15 13 11 9 8 5 4 4 4 1 0 0 1 3 4 5 7 9 10 11 10 10 10 9 8 8 7 8 11 13 17 19 18 18 17 16 16 14 13 11 10 12 14 16
27 26 27 26 23 21 18 18 18 15 13 11 11 8 7 6 3 2 2 2 2 2 1 2 4 7 9 10 10 10 10 9 7 6 6 9 13 14 16 17 17 17 17 16 15 14 13 11 12 12 15 17
28 28 29 27 24 23 21 21 20 17 16 15 14 12 11 9 8 7 5 5 4 3 2 2 3 5 8 8 8 8 7 7 6 5 7 11 14 14 15 15 15 15 16 16 15 14 13 14 14 14 16 16
28 29 29 25 24 24 22 21 21 19 17 16 14 13 13 13 12 11 9 8 6 4 3 3 3 3 6 6 6 5 4 4 5 5 7 13 15 14 15 15 16 16 15 15 15 15 15 16 16 15 17 16
30 30 28 26 27 26 24 23 22 21 18 16 15 14 15 14 13 11 11 9 8 6 5 4 3 3 5 5 5 4 6 5 5 5 6 13 15 14 15 15 16 16 16 15 15 16 16 16 16 16 17 17
33 34 30 29 30 28 26 25 25 23 20 18 16 15 16 14 13 11 9 8 8 8 9 8 6 6 6 7 7 6 7 7 8 7 5 11 13 14 14 15 16 16 16 16 16 17 17 16 16 16 17 18
34 35 33 32 31 30 29 27 26 24 21 20 18 16 16 15 14 12 11 10 10 9 11 11 10 10 10 10 10 9 10 10 11 8 8 12 13 14 15 16 17 16 17 17 18 18 18 17 17 17 18 19
33 34 34 34 33 32 30 28 26 24 22 21 19 18 17 15 14 13 13 13 13 13 13 13 13 14 15 15 14 13 13 14 13 11 12 14 15 16 17 18 18 18 18 18 19 19 18 18 19 19 19 20
32 33 35 37 36 34 31 29 27 25 25 23 20 19 18 16 15 14 13 13 13 13 13 13 14 15 17 17 15 14 15 16 15 14 14 16 17 18 18 19 18 19 19 20 20 20 19 20 21 21 21 21
33 33 37 39 38 36 33 30 29 28 26 23 20 18 18 17 17 17 16 15 13 12 11 12 14 15 17 17 14 14 15 16 16 16 16 17 17 18 18 18 19 19 19 20 20 20 20 21 22 23 22 22
35 35 36 38 36 34 33 32 30 28 24 22 21 19 19 19 18 18 17 17 15 13 12 13 14 15 16 16 14 14 16 16 17 17 17 18 18 18 18 18 19 19 19 19 19 19 20 21 22 23 23 23
34 36 36 36 35 33 32 28 26 26 25 25 24 21 21 21 21 20 19 18 17 15 14 14 15 15 16 15 15 15 16 16 17 18 18 18 18 18 18 18 19 19 19 19 19 20 20 21 22 22 23 23
35 36 38 40 38 35 30 25 25 27 28 29 27 23 23 24 23 21 20 19 17 15 15 15 15 15 16 16 16 17 16 16 17 19 18 18 18 18 18 18 18 19 19 20 20 20 21 21 22 22 22 23
38 37 39 42 39 36 34 30 29 30 31 31 29 26 24 25 25 23 22 21 17 16 16 17 16 15 16 17 17 17 16 15 17 19 19 18 18 18 18 19 18 19 20 20 20 20 21 21 22 22 22 23
35 38 40 40 39 39 39 37 35 34 34 33 31 29 27 26 27 25 24 23 19 18 18 18 16 16 16 17 17 17 16 16 18 20 20 19 19 19 19 19 19 19 20 19 20 20 21 22 22 22 23 23
30 37 40 39 40 42 42 40 38 36 36 35 33 32 30 28 28 27 26 24 21 19 20 19 18 17 17 17 17 17 17 17 19 21 21 21 20 20 20 19 19 20 20 20 20 20 21 22 22 22 23 23
27 32 38 39 40 44 45 43 40 38 38 38 37 36 33 31 30 29 27 25 22 21 21 21 20 19 18 18 18 18 18 18 20 21 22 22 21 21 21 20 19 20 20 20 20 21 21 21 22 22 22 22
26 29 34 37 40 45 47 45 44 41 41 41 40 39 36 34 34 31 28 26 24 23 23 24 23 21 19 18 19 19 19 19 20 22 23 23 22 22 22 21 20 20 21 21 20 21 21 21 22 21 22 22
24 26 29 34 40 45 46 45 46 45 46 45 43 43 40 38 38 34 30 28 26 26 25 26 25 23 21 20 20 19 19 20 21 23 24 24 24 24 23 23 22 21 21 21 21 21 21 21 22 22 23 23
24 25 26 31 37 41 42 43 46 47 48 46 44 46 43 39 37 34 31 30 28 28 27 27 27 25 24 22 21 20 20 21 22 23 24 24 25 25 24 24 24 22 22 22 21 21 21 22 22 22 23 23
24 26 26 26 29 33 36 40 44 45 46 47 45 45 43 40 37 35 35 33 31 30 28 28 29 27 26 25 23 23 22 22 23 23 23 24 25 26 25 25 24 23 22 22 22 21 22 22 22 22 23 23
24 25 26 27 26 27 30 34 40 43 45 46 46 46 46 44 41 39 38 35 33 33 31 30 30 30 29 27 27 26 24 25 25 24 23 23 24 25 25 24 23 22 22 22 22 22 22 22 21 22 23 24
22 24 26 28 28 26 26 28 34 41 45 46 46 48 47 46 44 42 40 38 37 36 35 32 32 33 32 31 30 29 27 27 26 24 23 22 23 24 25 24 23 23 23 23 22 22 21 21 22 23 24 25
12 18 24 27 28 27 25 25 29 37 45 47 46 46 46 45 44 43 41 41 41 40 37 35 35 36 36 34 33 31 29 27 25 23 22 22 23 24 25 26 25 25 25 24 24 23 22 22 23 24 25 26
5 9 15 22 27 27 24 24 27 32 39 44 46 47 48 47 46 45 44 44 44 42 40 39 38 39 38 36 34 32 30 29 27 25 24 24 25 25 26 26 26 27 27 26 26 24 23 23 23 24 24 25
7 8 9 12 19 23 24 27 28 28 32 39 44 45 47 47 46 45 46 46 46 44 43 43 42 41 40 37 35 34 34 33 31 30 28 27 27 26 26 26 27 28 28 27 26 23 22 23 23 23 26 27
12 13 12 11 12 15 18 22 26 28 31 34 37 39 42 45 45 45 46 48 48 47 46 45 44 43 41 38 37 37 37 37 35 33 32 30 30 29 29 29 29 29 28 27 26 24 22 20 19 21 24 27
14 16 17 17 15 15 15 15 19 26 32 34 35 36 36 38 39 39 41 44 47 49 48 47 45 45 43 41 40 41 40 39 37 36 34 34 33 32 31 30 30 30 29 29 29 28 24 19 18 21 20 19
16 16 16 17 16 15 15 13 13 18 26 33 36 37 35 36 37 37 36 38 43 46 47 49 48 47 47 45 44 44 43 42 40 39 37 36 36 35 34 32 31 31 30 29 29 29 28 24 22 22 19 17
16 16 15 15 15 15 15 13 10 11 16 22 29 35 36 36 38 38 36 36 40 43 46 48 50 50 50 49 47 45 44 45 44 42 40 39 38 37 36 35 35 32 29 30 31 30 30 29 26 21 20 21
Wind_Direction
197 199 207 207 205 195 189 196 195 196 202 200 186 163 159 137 102 98 74 115 128 126 128 131 134 134 136 136 132 134 129 123 129 123 126 151 150 148 149 148 147 150 158 160 163 166 165 159 154 149 135 129
205 204 208 205 199 193 196 200 197 199 208 209 198 194 199 169 123 134 250 154 149 105 100 119 135 137 136 137 135 133 130 128 138 147 156 160 150 147 148 150 152 157 163 167 169 170 170 162 158 157 140 132
212 207 201 198 194 190 195 200 197 197 205 204 203 207 212 210 197 209 201 200 254 306 9 113 135 143 142 143 140 135 136 137 149 179 194 174 159 154 153 154 158 164 169 172 174 174 175 167 163 161 139 130
206 203 198 195 191 190 198 202 197 195 202 204 201 195 189 196 196 195 202 209 221 234 208 154 149 153 148 148 148 143 153 161 162 190 208 181 166 160 159 161 166 173 175 175 178 178 180 174 168 164 144 132
207 200 193 191 191 194 203 207 201 196 201 204 198 188 185 187 184 185 196 216 215 190 178 172 170 172 166 166 164 170 213 221 184 193 199 180 173 171 171 171 174 178 179 180 182 182 184 180 175 170 155 142
218 207 193 191 194 198 205 209 205 200 200 203 197 189 187 185 182 185 190 202 208 213 228 212 202 214 207 203 199 220 250 249 231 241 200 182 183 185 185 184 183 183 183 184 186 187 188 186 183 179 165 148
219 212 201 194 197 200 205 207 205 203 204 204 199 192 189 185 185 189 188 194 203 219 236 237 238 233 231 230 224 236 248 246 255 271 220 196 196 196 202 199 193 192 190 190 191 193 193 191 189 187 175 156
212 207 203 198 200 202 201 203 204 204 205 203 199 196 192 189 189 189 194 204 212 219 228 236 239 235 240 243 243 252 259 260 263 260 228 216 212 208 211 205 201 200 199 199 198 199 197 194 193 194 184 167
213 206 205 202 203 202 200 202 204 204 205 202 200 198 194 194 193 190 192 199 208 216 221 225 227 232 240 245 248 251 254 256 254 242 226 219 216 213 211 206 204 203 203 204 204 205 201 195 195 198 193 180
222 214 206 201 201 200 200 203 207 208 207 204 203 199 194 196 198 196 195 195 198 207 214 219 223 228 235 240 240 238 240 241 239 235 226 218 214 213 211 209 207 206 206 206 206 207 203 198 197 198 199 191
226 218 207 201 198 199 202 206 211 211 206 206 207 202 198 201 203 202 203 202 201 205 214 222 227 229 231 235 232 229 232 230 229 227 224 221 216 214 213 211 210 209 209 210 210 208 204 203 200 199 200 197
229 219 209 202 198 200 206 209 214 212 208 212 214 207 202 205 207 206 207 208 210 214 220 226 231 233 232 233 230 228 229 226 225 223 221 221 218 216 214 210 211 210 210 212 211 208 207 206 204 203 200 200
232 221 212 208 207 210 213 216 222 221 218 218 218 212 206 208 211 209 210 210 213 220 221 223 229 232 232 233 232 231 230 225 224 225 221 220 219 216 214 212 211 211 210 211 209 208 208 208 207 206 204 202
239 227 216 215 216 216 218 228 235 231 228 222 218 218 212 211 215 216 216 215 217 223 222 222 227 231 231 229 230 234 236 229 226 227 224 222 222 219 216 215 212 212 212 212 210 209 209 209 208 207 206 204
242 235 223 218 217 217 219 226 232 231 231 224 221 224 217 212 216 220 220 220 223 227 223 220 225 232 232 229 231 234 238 234 228 228 227 224 225 222 220 218 215 214 213 212 211 209 210 210 208 206 205 204
243 239 232 224 219 219 219 222 225 226 226 223 223 227 222 215 217 222 222 222 225 228 224 220 222 230 232 233 235 237 239 235 229 228 227 226 225 224 223 220 216 216 214 213 212 210 211 210 209 207 205 204
248 241 234 227 222 222 223 224 225 226 226 224 225 227 223 217 218 222 223 222 223 226 225 221 222 226 229 233 235 237 238 235 232 230 228 227 227 225 225 222 219 218 215 214 213 212 212 211 210 209 207 206
258 248 237 229 226 226 225 226 229 230 230 228 227 228 225 219 220 223 222 222 223 224 224 222 223 225 227 230 232 234 236 236 235 233 230 228 228 227 227 225 222 221 218 215 215 214 214 213 212 211 210 209
265 255 245 235 230 229 226 226 229 231 232 232 231 230 227 221 221 222 221 222 224 225 224 223 223 225 228 229 230 233 235 235 234 233 231 228 228 227 227 226 222 223 222 218 216 216 216 216 215 215 214 213
270 262 253 244 239 233 228 228 230 230 230 230 229 228 224 221 220 220 221 223 225 225 224 224 223 224 227 228 229 232 234 233 232 232 232 229 228 227 227 227 223 223 224 221 218 217 217 217 217 218 218 217
271 267 257 247 245 241 233 230 232 232 229 227 228 227 224 222 223 223 224 225 226 227 225 224 224 222 223 225 227 229 231 232 232 232 233 230 228 227 226 227 224 223 226 224 221 219 220 220 219 220 221 221
269 264 253 244 248 252 247 240 236 234 231 229 230 232 231 228 229 229 229 228 227 227 226 224 225 224 223 223 223 224 226 229 232 233 234 231 228 228 226 227 226 225 228 228 226 224 224 224 223 224 224 223
259 256 252 250 251 256 259 255 247 239 235 233 231 234 236 231 230 231 232 231 230 228 227 225 225 225 224 223 221 220 220 223 228 230 231 230 228 229 229 230 229 228 229 230 229 228 228 228 227 229 228 227
255 251 250 251 249 253 265 269 262 250 240 237 234 234 234 231 230 232 232 233 233 230 227 225 226 225 224 223 222 219 218 221 227 229 230 230 229 229 229 229 227 227 228 228 230 231 230 231 230 231 232 231
278 264 256 254 254 259 268 273 273 261 246 239 239 238 237 236 236 234 232 234 234 232 229 227 227 227 226 223 223 222 221 224 228 229 229 229 228 227 228 227 225 224 225 225 226 227 228 231 231 232 234 234
309 290 273 266 265 268 275 276 274 268 256 246 244 244 243 241 239 236 235 235 234 233 232 230 228 229 229 226 226 225 223 223 224 225 224 223 222 223 225 227 228 226 226 225 226 227 228 230 231 233 236 236
283 289 289 281 272 269 273 273 271 273 268 256 249 248 247 245 242 240 239 238 236 234 234 233 231 231 230 229 229 227 224 222 221 221 221 221 222 222 221 222 226 229 229 229 228 225 226 229 231 234 235 235
283 279 276 277 273 267 268 269 268 268 266 262 259 257 255 252 250 248 246 243 240 239 237 235 236 236 233 231 232 230 226 223 221 220 220 221 221 221 221 219 223 228 230 228 224 219 220 224 228 233 235 236
286 279 276 274 271 272 275 279 280 271 263 263 266 266 265 262 260 259 256 252 246 243 239 237 240 241 239 236 236 233 229 227 226 224 223 221 220 221 223 224 225 225 225 226 226 224 220 215 220 228 232 235
297 291 291 289 288 290 291 295 306 293 275 268 266 266 267 263 260 259 259 257 253 247 242 239 240 242 241 240 239 236 232 230 228 228 227 225 223 224 225 227 228 226 223 223 226 228 226 225 228 229 224 222
314 304 302 302 303 306 308 305 308 308 293 280 272 268 265 261 259 258 257 257 255 250 246 242 241 241 240 241 242 239 236 233 230 230 231 229 227 227 226 226 228 227 223 220 221 224 228 230 231 229 222 219
Height
1509 1510 1511 1512 1514 1517 1519 1522 1523 1524 1525 1525 1527 1527 1527 1528 1529 1530 1531 1533 1535 1536 1536 1537 1538 1539 1540 1541 1542 1542 1543 1543 1543 1543 1543 1544 1545 1545 1546 1547 1548 1549 1551 1553 1554 1556 1557 1558 1559 1559 1560 1560
1508 1509 1511 1511 1512 1515 1517 1519 1522 1523 1524 1525 1526 1526 1527 1527 1528 1529 1530 1532 1533 1534 1536 1537 1538 1539 1540 1541 1542 1542 1542 1543 1543 1542 1542 1543 1544 1545 1546 1547 1548 1549 1551 1552 1554 1555 1557 1558 1559 1559 1560 1561
1506 1508 1509 1510 1511 1513 1515 1517 1520 1521 1522 1523 1524 1525 1525 1526 1527 1528 1529 1530 1532 1533 1535 1537 1538 1539 1540 1541 1541 1541 1541 1542 1542 1541 1542 1543 1544 1545 1546 1547 1549 1550 1551 1552 1554 1555 1557 1558 1558 1559 1560 1561
1506 1506 1507 1509 1511 1512 1514 1515 1517 1519 1520 1521 1522 1524 1524 1524 1525 1526 1528 1529 1530 1532 1534 1536 1537 1539 1540 1540 1540 1540 1540 1541 1541 1541 1542 1543 1545 1546 1546 1547 1549 1551 1551 1553 1554 1555 1556 1557 1558 1559 1560 1560
1506 1505 1506 1508 1510 1511 1513 1514 1516 1517 1519 1520 1521 1522 1523 1523 1524 1525 1526 1527 1529 1531 1533 1535 1536 1538 1539 1539 1538 1538 1539 1539 1540 1541 1541 1543 1545 1545 1546 1547 1549 1550 1551 1552 1554 1555 1555 1556 1557 1558 1559 1560
1506 1505 1506 1507 1508 1510 1512 1513 1514 1516 1517 1518 1519 1520 1521 1522 1523 1524 1525 1526 1528 1530 1532 1533 1535 1536 1537 1538 1537 1537 1538 1539 1539 1540 1541 1542 1544 1545 1546 1547 1548 1550 1550 1552 1553 1554 1554 1556 1557 1558 1558 1559
1503 1503 1504 1505 1506 1508 1510 1511 1512 1514 1516 1517 1518 1519 1520 1521 1522 1523 1524 1525 1526 1528 1530 1531 1533 1535 1536 1536 1536 1536 1537 1538 1538 1540 1541 1542 1544 1544 1546 1547 1549 1549 1550 1551 1552 1553 1554 1555 1556 1557 1558 1559
1501 1501 1502 1503 1504 1506 1508 1509 1511 1513 1514 1515 1517 1518 1518 1519 1520 1521 1522 1524 1525 1527 1529 1530 1532 1534 1534 1535 1535 1536 1537 1537 1538 1540 1541 1542 1543 1544 1545 1547 1548 1549 1549 1550 1551 1552 1553 1555 1556 1556 1557 1558
1500 1500 1500 1500 1502 1504 1506 1508 1509 1511 1513 1514 1516 1517 1517 1518 1519 1520 1520 1521 1523 1525 1527 1529 1530 1532 1533 1533 1534 1536 1537 1537 1538 1539 1540 1541 1542 1544 1545 1546 1547 1548 1548 1549 1550 1551 1553 1554 1554 1555 1556 1557
1500 1500 1500 1499 1499 1502 1504 1506 1508 1509 1511 1513 1515 1515 1516 1517 1518 1519 1519 1520 1521 1523 1525 1527 1528 1530 1531 1532 1533 1534 1535 1536 1537 1538 1539 1540 1541 1542 1544 1545 1546 1546 1547 1548 1549 1550 1551 1552 1553 1554 1555 1556
1497 1499 1500 1498 1497 1499 1502 1504 1506 1508 1510 1512 1514 1515 1515 1516 1516 1517 1518 1519 1520 1522 1524 1525 1527 1528 1529 1530 1531 1532 1533 1534 1536 1537 1538 1539 1540 1541 1542 1543 1544 1545 1546 1547 1548 1549 1550 1551 1552 1553 1554 1555
1495 1497 1499 1499 1499 1499 1500 1502 1504 1507 1510 1512 1513 1514 1514 1515 1516 1516 1516 1517 1519 1520 1522 1524 1525 1526 1527 1528 1530 1531 1531 1533 1534 1535 1536 1537 1538 1540 1541 1542 1542 1544 1545 1546 1547 1548 1549 1549 1550 1551 1553 1554
1494 1495 1497 1498 1499 1499 1500 1502 1504 1507 1509 1510 1511 1512 1513 1514 1515 1515 1515 1516 1517 1518 1520 1522 1523 1525 1526 1527 1528 1529 1530 1531 1532 1533 1534 1535 1537 1538 1539 1540 1541 1542 1543 1544 1545 1546 1547 1548 1549 1550 1551 1553
1492 1493 1494 1495 1496 1498 1499 1501 1503 1505 1506 1508 1509 1510 1511 1513 1513 1514 1514 1515 1516 1517 1518 1520 1521 1523 1525 1526 1526 1527 1528 1530 1530 1531 1533 1534 1535 1536 1537 1538 1539 1541 1541 1542 1544 1545 1545 1546 1548 1549 1550 1552
1491 1492 1492 1492 1494 1496 1497 1498 1500 1502 1503 1505 1507 1508 1509 1511 1512 1513 1513 1513 1514 1515 1516 1517 1519 1521 1523 1524 1525 1526 1527 1528 1529 1530 1532 1533 1534 1535 1536 1537 1538 1539 1540 1541 1542 1543 1544 1545 1546 1547 1549 1550
1488 1489 1489 1490 1492 1494 1494 1495 1496 1499 1500 1502 1504 1505 1506 1508 1510 1510 1511 1511 1511 1512 1514 1515 1517 1518 1520 1522 1523 1524 1525 1527 1528 1529 1530 1532 1533 1534 1535 1536 1537 1537 1538 1540 1541 1542 1543 1544 1545 1546 1548 1549
1487 1488 1487 1488 1490 1491 1491 1492 1494 1496 1498 1499 1501 1502 1503 1504 1506 1508 1508 1509 1509 1510 1511 1513 1514 1515 1517 1519 1521 1522 1523 1524 1526 1527 1529 1530 1531 1532 1533 1534 1535 1536 1537 1538 1539 1541 1542 1543 1544 1545 1546 1547
1486 1487 1487 1488 1489 1489 1488 1489 1491 1493 1495 1497 1498 1499 1501 1502 1503 1505 1506 1507 1508 1509 1509 1510 1512 1513 1515 1517 1518 1520 1521 1523 1524 1525 1527 1528 1529 1530 1531 1533 1534 1534 1535 1537 1538 1539 1540 1542 1543 1544 1545 1546
1485 1486 1486 1487 1488 1487 1485 1486 1488 1489 1491 1493 1495 1496 1498 1499 1500 1501 1503 1504 1506 1506 1507 1508 1509 1511 1513 1514 1516 1518 1520 1521 1522 1523 1525 1526 1527 1529 1529 1531 1532 1533 1533 1535 1537 1538 1539 1540 1542 1543 1544 1545
1484 1485 1486 1486 1486 1485 1484 1485 1486 1486 1487 1489 1491 1493 1495 1496 1498 1500 1501 1501 1503 1503 1505 1506 1507 1509 1510 1511 1513 1515 1517 1519 1520 1521 1523 1525 1526 1527 1528 1529 1530 1531 1532 1533 1535 1537 1538 1539 1540 1541 1542 1543
1481 1482 1483 1484 1485 1485 1484 1485 1485 1485 1486 1487 1489 1490 1492 1495 1497 1499 1499 1499 1500 1501 1502 1504 1505 1506 1507 1508 1510 1513 1515 1516 1518 1519 1521 1523 1524 1525 1526 1527 1528 1530 1530 1532 1534 1535 1536 1537 1539 1540 1541 1542
1479 1480 1481 1482 1484 1485 1485 1485 1485 1485 1486 1486 1488 1488 1490 1493 1495 1496 1496 1497 1498 1499 1500 1502 1503 1504 1505 1506 1507 1509 1512 1513 1515 1516 1518 1520 1521 1523 1524 1525 1527 1528 1529 1530 1532 1534 1535 1536 1537 1538 1539 1540
1478 1478 1479 1480 1481 1483 1483 1484 1484 1484 1484 1484 1486 1486 1487 1489 1491 1492 1493 1494 1496 1497 1498 1499 1501 1502 1503 1504 1504 1506 1508 1510 1511 1514 1516 1517 1519 1520 1522 1523 1525 1526 1527 1528 1530 1531 1533 1534 1535 1536 1537 1538
1476 1476 1477 1477 1478 1480 1481 1482 1482 1482 1482 1482 1483 1484 1484 1486 1487 1489 1490 1492 1493 1494 1495 1496 1497 1499 1500 1501 1501 1503 1504 1506 1508 1510 1513 1515 1516 1518 1519 1521 1523 1524 1525 1526 1528 1529 1531 1532 1533 1533 1534 1535
1474 1475 1476 1476 1476 1477 1478 1479 1480 1479 1479 1480 1481 1482 1482 1484 1485 1486 1487 1489 1491 1492 1492 1494 1495 1495 1497 1498 1499 1500 1502 1503 1505 1507 1509 1512 1513 1515 1516 1518 1519 1521 1522 1524 1525 1526 1528 1529 1530 1530 1531 1532
1471 1473 1474 1474 1474 1475 1475 1476 1476 1476 1477 1478 1478 1479 1479 1480 1482 1483 1484 1486 1487 1488 1490 1492 1492 1492 1494 1496 1497 1498 1500 1501 1503 1504 1506 1507 1509 1511 1513 1514 1516 1517 1519 1520 1522 1524 1526 1526 1527 1528 1529 1529
1471 1471 1471 1472 1472 1472 1473 1472 1473 1474 1475 1475 1475 1476 1477 1478 1479 1480 1481 1482 1484 1485 1487 1489 1489 1490 1491 1493 1494 1496 1497 1498 1499 1501 1502 1504 1506 1507 1509 1511 1512 1514 1515 1518 1520 1522 1523 1523 1525 1525 1525 1526
1471 1470 1470 1470 1470 1470 1470 1470 1471 1472 1472 1472 1473 1474 1475 1476 1477 1478 1479 1480 1481 1482 1483 1485 1486 1487 1489 1490 1491 1492 1494 1495 1496 1497 1498 1500 1502 1504 1505 1506 1507 1509 1512 1514 1516 1518 1519 1521 1523 1521 1521 1523
1469 1469 1469 1468 1468 1467 1468 1468 1469 1470 1470 1469 1470 1471 1472 1473 1474 1475 1476 1477 1477 1478 1480 1482 1482 1484 1486 1487 1487 1489 1490 1491 1492 1494 1495 1497 1499 1500 1500 1501 1503 1505 1507 1509 1511 1513 1515 1518 1518 1517 1519 1521
1469 1469 1468 1468 1467 1467 1467 1467 1468 1469 1469 1468 1468 1468 1469 1469 1470 1471 1472 1473 1473 1475 1476 1478 1479 1479 1481 1483 1483 1485 1487 1488 1489 1490 1491 1493 1495 1497 1498 1499 1500 1501 1503 1505 1507 1509 1510 1512 1513 1514 1517 1518
1469 1469 1468 1468 1467 1467 1467 1466 1466 1467 1467 1467 1466 1466 1466 1466 1467 1468 1469 1470 1470 1471 1473 1474 1475 1475 1477 1479 1480 1482 1484 1485 1485 1486 1488 1490 1491 1493 1495 1496 1496 1497 1500 1501 1502 1504 1506 1509 1510 1512 1513 1514